Regional Weather Roundup
Issued by NWS Charleston, WV

Home | Current Version | Previous Version | Text Only | Print | Product List | Glossary Off
Versions: 1 2 3 4 5 6 7 8 9 10 11 12 13 14 15 16 17 18 19 20 21 22 23 24 25 26 27 28 29 30 31 32 33 34 35 36 37 38 39 40 41 42 43 44 45 46 47 48 49 50

078
ASUS41 KRLX 281810
RWRRLX
West Virginia Regional Weather Roundup
National Weather Service Charleston WV
200 PM EDT THU APR 28 2016

Note: "fair" indicates few or no clouds below 12,000 feet with no
significant weather and/or obstructions to visibility.

WVZ003-281900-
Northern Panhandle of West Virginia

CITY           SKY/WX    TMP DP  RH WIND       PRES   REMARKS
WHEELING       CLOUDY    57  52  83 CALM      29.87R
$$

WVZ009-281900-
Northwest West Virginia

CITY           SKY/WX    TMP DP  RH WIND       PRES   REMARKS
PARKERSBURG    PTSUNNY   73  59  61 W6        29.85F
$$

WVZ006-281900-
Western West Virginia

CITY           SKY/WX    TMP DP  RH WIND       PRES   REMARKS
HUNTINGTON       N/A     76  61  59 SW8       29.83F
$$

WVZ015-281900-
West Central West Virginia

CITY           SKY/WX    TMP DP  RH WIND       PRES   REMARKS
CHARLESTON       N/A     75  58  55 W8        29.84F
$$

WVZ022-031-281900-
North Central West Virginia

CITY           SKY/WX    TMP DP  RH WIND       PRES   REMARKS
CLARKSBURG     CLOUDY    72  61  68 W9        29.84F
MORGANTOWN     PTSUNNY   69  57  65 VRB6      29.86F
$$

WVZ025-035-042-045-281900-
Southern West Virginia

CITY           SKY/WX    TMP DP  RH WIND       PRES   REMARKS
BECKLEY          N/A     74  56  53 W13G22    29.90F
LOGAN          NOT AVBL
BLUEFIELD      PTSUNNY   72  53  51 W15G23    29.93F
LEWISBURG      PTSUNNY   74  54  50 W15G25    29.89F
$$

WVZ047-281900-
Northern Mountains of West Virginia

CITY           SKY/WX    TMP DP  RH WIND       PRES   REMARKS
ELKINS         PTSUNNY   72  55  55 NW14G23   29.87F
$$

WVZ052-281900-
Eastern Panhandle of West Virginia

CITY           SKY/WX    TMP DP  RH WIND       PRES   REMARKS
MARTINSBURG    CLOUDY    50  46  86 E7        29.98S
PETERSBURG     CLOUDY    57  54  89 N5        29.93F
$$




USA.gov is the U.S. government's official web portal to all federal, state and local government web resources and services.